SARSAT 13 (METOP-B)

Last updated on Sat Jun 27 2026 00:02:55 GMT+0000 (Coordinated Universal Time)

1 38771U 12049A 26177.69241264 .00000086 00000+0 58999-4 0 9996 2 38771 98.6500 229.0018 0001640 351.4215 8.6934 14.21441705714618
UTC large
Height (km)
Speed (km/s)
/
Latitude / Longitude
Inclination (degrees)
Orbital Period (minutes)
Azimuth
Elevation
Range (km)
Doppler Factor

Next 0 passes for location: London (51.5072 / 0.1276)

No passes found over London.
SARSAT 13 (METOP-B)